Location: Altmatt
(47.1333°N, 8.7000°E)
Time: 07:41:57
(UTC+00:00)

Cosmos 1782 - Pass Details

Date: 13 July 2020
Orbit: 536 x 553 km, 82.5° (Epoch: 04 August)

Event Time Altitude Azimuth Distance (km) Brightness Sun altitude
Rises 23:04:06 0° 343° (NNW) 2,700 7.8 -21.0°
Reaches altitude 10° 23:06:22 10° 335° (NNW) 1,804 6.5 -21.0°
Maximum altitude 23:10:02 37° 268° (W) 845 3.7 -21.1°
Enters shadow 23:10:30 36° 250° (WSW) 870 3.6 -21.1°
